This demonstration page uses our WeatherBlox Daily Observations layout. Learn more.

Hourly Observations for July 31, 2019

Temp ( °F °C ) Dew Point ( °F °C ) Humidity (%) Winds ( mph kmh ) Pressure ( in mb ) Visibility ( mi km ) Precip ( " mm )
12:15 am 00:15 Clear 71 21.5 64 17.8 80 80 SE 13 20 29.91 1013 10 16.09344 0 0
12:35 am 00:35 Clear 70 21.1 64 17.7 81 81 SE 12 19 29.91 1013 10 16.09344 0 0
12:55 am 00:55 Clear 70 21 64 17.6 81 81 ESE 13 20 29.91 1013 10 16.09344 0 0
1:15 am 01:15 Clear 69 20.8 64 17.5 82 82 SE 12 19 29.91 1013 10 16.09344 0 0
1:35 am 01:35 Clear 70 21.3 63 17.2 78 78 SE 13 20 29.91 1013 10 16.09344 0 0
1:55 am 01:55 Clear 71 21.5 63 17 76 76 SE 15 24 29.91 1013 10 16.09344 0 0
2:15 am 02:15 Clear 70 21.2 63 17 77 77 SE 14 22 29.91 1013 10 16.09344 0 0
2:35 am 02:35 Clear 70 21.2 63 17 77 77 SE 14 22 29.91 1013 10 16.09344 0 0
2:55 am 02:55 Clear 70 21 63 17 78 78 SE 13 20 29.88 1012 10 16.09344 0 0
3:15 am 03:15 Clear 69 20.8 63 17 79 79 SE 14 22 29.88 1012 10 16.09344 0 0
3:35 am 03:35 Clear 69 20.7 63 17.1 80 80 SE 15 24 29.88 1012 10 16.09344 0 0
3:55 am 03:55 Clear 69 20.7 63 17.2 80 80 SE 13 20 29.88 1012 10 16.09344 0 0
4:15 am 04:15 Clear 69 20.7 63 17.3 81 81 SE 13 20 29.88 1012 10 16.09344 0 0
4:35 am 04:35 Clear 69 20.8 63 17.4 81 81 SE 15 24 29.88 1012 10 16.09344 0 0
4:55 am 04:55 Clear 69 20.6 64 17.5 83 83 SSE 16 26 29.85 1011 10 16.09344 0 0
5:15 am 05:15 Clear 69 20.8 64 17.5 82 82 SSE 17 28 29.85 1011 10 16.09344 0 0
5:35 am 05:35 Clear 69 20.7 64 17.5 82 82 SSE 14 22 29.85 1011 10 16.09344 0 0
5:55 am 05:55 Clear 69 20.7 64 17.7 83 83 SSE 15 24 29.85 1011 10 16.09344 0 0
6:15 am 06:15 Clear 69 20.6 64 17.7 84 84 SSE 18 30 29.85 1011 10 16.09344 0 0
6:35 am 06:35 Sunny 69 20.4 64 17.8 85 85 SSE 13 20 29.88 1012 10 16.09344 0 0
6:55 am 06:55 Sunny 68 20.1 64 17.9 87 87 SSE 9 15 29.88 1012 10 16.09344 0 0
7:15 am 07:15 Sunny 68 20.2 64 18 87 87 SSE 9 15 29.88 1012 10 16.09344 0 0
7:35 am 07:35 Sunny 69 20.8 65 18.3 86 86 SSE 12 19 29.88 1012 10 16.09344 0 0
7:55 am 07:55 Sunny 71 21.5 65 18.4 83 83 SSE 10 17 29.88 1012 10 16.09344 0 0
8:15 am 08:15 Sunny 71 21.5 65 18.5 83 83 SSE 12 19 29.88 1012 10 16.09344 0 0
8:35 am 08:35 Sunny 72 22.4 66 18.7 80 80 SSE 12 19 29.88 1012 10 16.09344 0 0
8:55 am 08:55 Sunny 74 23.2 66 19.1 78 78 SSE 15 24 29.85 1011 10 16.09344 0 0
9:15 am 09:15 Sunny 74 23.3 66 19 77 77 SSE 13 20 29.85 1011 10 16.09344 0 0
9:35 am 09:35 Sunny 74 23.5 66 19.1 76 76 SSE 13 20 29.85 1011 10 16.09344 0 0
9:55 am 09:55 Sunny 75 23.8 67 19.5 77 77 ENE 3 6 29.91 1013 10 16.09344 0 0
10:15 am 10:15 Sunny 76 24.5 67 19.4 73 73 E 5 7 29.91 1013 10 16.09344 0 0
10:35 am 10:35 Sunny 77 25.1 67 19.7 72 72 E 9 15 29.88 1012 10 16.09344 0 0
10:55 am 10:55 Sunny 78 25.6 68 20 71 71 SE 12 19 29.88 1012 10 16.09344 0 0
11:15 am 11:15 Sunny 78 25.8 67 19.4 68 68 SE 10 17 29.88 1012 10 16.09344 0 0
11:35 am 11:35 Sunny 80 26.5 68 20.1 68 68 SSE 13 20 29.88 1012 10 16.09344 0 0
11:55 am 11:55 Sunny 81 27.1 69 20.3 66 66 SE 15 24 29.85 1011 10 16.09344 0 0
12:15 pm 12:15 Sunny 81 27.2 68 20.1 65 65 SE 12 19 29.85 1011 10 16.09344 0 0
12:35 pm 12:35 Sunny 81 27.1 68 20.2 66 66 SSE 12 19 29.83 1010 10 16.09344 0 0
12:55 pm 12:55 Sunny 82 27.6 68 20.2 64 64 SE 6 9 29.83 1010 10 16.09344 0 0
1:15 pm 13:15 Sunny 83 28.3 69 20.6 63 63 SE 10 17 29.85 1011 10 16.09344 0 0
1:35 pm 13:35 Sunny 83 28.1 69 20.4 63 63 SE 6 9 29.85 1011 10 16.09344 0 0
1:55 pm 13:55 Sunny 84 28.9 69 20.6 61 61 ESE 8 13 29.85 1011 10 16.09344 0 0
2:15 pm 14:15 Sunny 84 29.1 70 21.3 63 63 E 7 11 29.85 1011 10 16.09344 0 0
2:35 pm 14:35 Sunny 85 29.6 71 21.4 61 61 ESE 8 13 29.85 1011 10 16.09344 0 0
2:55 pm 14:55 Sunny 85 29.4 71 21.6 63 63 E 8 13 29.85 1011 10 16.09344 0 0
3:15 pm 15:15 Sunny 84 29.1 71 21.9 65 65 E 9 15 29.85 1011 10 16.09344 0 0
3:35 pm 15:35 Sunny 85 29.5 72 22.2 65 65 ENE 9 15 29.85 1011 10 16.09344 0 0
3:55 pm 15:55 Sunny 85 29.3 73 22.8 68 68 NE 12 19 29.85 1011 10 16.09344 0 0
4:15 pm 16:15 Sunny 84 28.8 73 22.8 70 70 NE 10 17 29.85 1011 10 16.09344 0 0
4:35 pm 16:35 Sunny 83 28.5 73 22.6 70 70 ENE 13 20 29.85 1011 10 16.09344 0 0
4:55 pm 16:55 Sunny 84 29 74 23.4 72 72 NE 10 17 29.85 1011 10 16.09344 0 0
5:15 pm 17:15 Sunny 85 29.7 74 23.4 69 69 ENE 13 20 29.85 1011 10 16.09344 0 0
5:35 pm 17:35 Sunny 86 30.1 75 23.7 69 69 ENE 8 13 29.85 1011 10 16.09344 0 0
5:55 pm 17:55 Sunny 87 30.5 73 22.6 63 63 ENE 12 19 29.8 1009 7 11.265408 0 0
6:15 pm 18:15 Sunny 86 30 75 23.9 70 70 NE 12 19 29.85 1011 10 16.09344 0 0
6:35 pm 18:35 Sunny 85 29.5 76 24.4 74 74 NE 10 17 29.83 1010 10 16.09344 0 0
7:15 pm 19:15 Sunny 83 28.2 75 24 78 78 ENE 9 15 29.83 1010 10 16.09344 0 0
7:35 pm 19:35 Sunny 83 28.5 75 24.1 77 77 NE 10 17 29.83 1010 10 16.09344 0 0
7:55 pm 19:55 Sunny 82 27.6 74 23.6 79 79 ENE 13 20 29.83 1010 10 16.09344 0 0
8:15 pm 20:15 Sunny 81 27.1 73 22.6 76 76 E 12 19 29.83 1010 10 16.09344 0 0
8:35 pm 20:35 Sunny 79 25.9 71 21.8 78 78 ENE 14 22 29.88 1012 10 16.09344 0 0
8:55 pm 20:55 Clear 77 25 70 20.9 78 78 ENE 13 20 29.88 1012 10 16.09344 0 0
9:15 pm 21:15 Clear 76 24.3 68 20.1 77 77 E 14 22 29.88 1012 10 16.09344 0 0
9:35 pm 21:35 Clear 75 23.8 67 19.7 78 78 E 13 20 29.88 1012 10 16.09344 0 0
9:55 pm 21:55 Clear 75 23.7 67 19.3 76 76 E 15 24 29.91 1013 10 16.09344 0 0
10:15 pm 22:15 Clear 74 23.4 66 19.1 77 77 E 14 22 29.91 1013 10 16.09344 0 0
10:35 pm 22:35 Clear 74 23.2 66 19 77 77 E 15 24 29.94 1014 10 16.09344 0 0
10:55 pm 22:55 Clear 73 23 66 19 78 78 E 13 20 29.94 1014 10 16.09344 0 0
11:15 pm 23:15 Clear 73 22.5 66 19.1 81 81 E 12 19 29.94 1014 10 16.09344 0 0
11:35 pm 23:35 Clear 72 22.2 67 19.2 83 83 E 12 19 29.94 1014 10 16.09344 0 0
11:55 pm 23:55 Clear 72 22 67 19.5 86 86 E 13 20 29.94 1014 10 16.09344 0 0

Powered by AerisWeather